When you browse on this site, cookies collect data to enhance your experience and personalize the content and advertising you see.
Visit our Privacy Policy to learn more. By continuing to use the site, you agree to this use of cookies and data.
  • In Slovakia
  • List of Countries
  • For 7 days
  • Water Temperature
  • Weather Map
  • Weather Widgets
  • user-avatar
    Login

    Hourly Weather Zhlobin

    Today, 23 August, Friday

    Time Temperature Precipitation Wind Pressure Humidity
    00:00 +13°C° 0 mm 3 mps 759 mmHg 90%
    01:00 +13°C° 0 mm 3 mps 759 mmHg 91%
    02:00 +13°C° 0 mm 3 mps 759 mmHg 91%
    03:00 +12°C° 0 mm 3 mps 759 mmHg 92%
    04:00 +13°C° 0 mm 2 mps 759 mmHg 92%
    05:00 +13°C° 0 mm 2 mps 759 mmHg 93%
    06:00 +13°C° 0 mm 3 mps 759 mmHg 87%
    07:00 +16°C° 0 mm 3 mps 759 mmHg 81%
    08:00 +17°C° 0 mm 3 mps 760 mmHg 73%
    09:00 +19°C° 0 mm 3 mps 760 mmHg 66%
    10:00 +20°C° 0 mm 4 mps 760 mmHg 60%
    11:00 +21°C° 0 mm 4 mps 759 mmHg 54%
    12:00 +22°C° 0 mm 4 mps 759 mmHg 51%
    13:00 +23°C° 0 mm 4 mps 759 mmHg 48%
    14:00 +24°C° 0 mm 3 mps 759 mmHg 46%
    15:00 +24°C° 0 mm 3 mps 759 mmHg 49%
    16:00 +24°C° 0 mm 3 mps 759 mmHg 52%
    17:00 +22°C° 0 mm 3 mps 758 mmHg 56%
    18:00 +20°C° 0 mm 3 mps 758 mmHg 63%
    19:00 +18°C° 0 mm 2 mps 758 mmHg 70%
    20:00 +16°C° 0 mm 2 mps 758 mmHg 77%
    21:00 +15°C° 0 mm 2 mps 758 mmHg 80%
    22:00 +15°C° 0 mm 2 mps 758 mmHg 82%
    23:00 +14°C° 0 mm 2 mps 758 mmHg 85%

    Tomorrow, 24 August, Saturday

    Time Temperature Precipitation Wind Pressure Humidity
    00:00 +14°C° 0 mm 2 mps 759 mmHg 86%
    01:00 +13°C° 0 mm 2 mps 759 mmHg 87%
    02:00 +13°C° 0 mm 2 mps 759 mmHg 88%
    03:00 +12°C° 0 mm 1 mps 759 mmHg 89%
    04:00 +12°C° 0 mm 1 mps 758 mmHg 90%
    05:00 +12°C° 0 mm 1 mps 758 mmHg 91%
    06:00 +14°C° 0 mm 1 mps 758 mmHg 83%
    07:00 +16°C° 0 mm 1 mps 758 mmHg 76%
    08:00 +19°C° 0 mm 1 mps 758 mmHg 69%
    09:00 +20°C° 0 mm 1 mps 758 mmHg 63%
    10:00 +21°C° 0 mm 2 mps 758 mmHg 56%
    11:00 +23°C° 0 mm 2 mps 758 mmHg 50%
    12:00 +24°C° 0 mm 2 mps 758 mmHg 47%
    13:00 +25°C° 0 mm 2 mps 758 mmHg 44%
    14:00 +25°C° 0 mm 2 mps 757 mmHg 42%
    15:00 +25°C° 0 mm 2 mps 757 mmHg 45%
    16:00 +25°C° 0 mm 2 mps 757 mmHg 48%
    17:00 +24°C° 0 mm 2 mps 757 mmHg 52%
    18:00 +22°C° 0 mm 1 mps 757 mmHg 58%
    19:00 +20°C° 0 mm 1 mps 757 mmHg 65%
    20:00 +18°C° 0 mm 1 mps 757 mmHg 71%
    21:00 +16°C° 0 mm 1 mps 757 mmHg 74%
    22:00 +16°C° 0 mm 1 mps 757 mmHg 77%
    23:00 +15°C° 0 mm 1 mps 757 mmHg 81%

    Day after tomorrow, 25 August, Sunday

    Time Temperature Precipitation Wind Pressure Humidity
    00:00 +15°C° 0 mm 1 mps 757 mmHg 82%
    01:00 +14°C° 0 mm 1 mps 757 mmHg 83%
    02:00 +14°C° 0 mm 1 mps 757 mmHg 85%
    03:00 +14°C° 0 mm 1 mps 757 mmHg 86%
    04:00 +14°C° 0 mm 1 mps 757 mmHg 87%
    05:00 +14°C° 0 mm 1 mps 757 mmHg 89%
    06:00 +16°C° 0 mm 1 mps 757 mmHg 82%
    07:00 +18°C° 0 mm 1 mps 757 mmHg 76%
    08:00 +19°C° 0 mm 2 mps 757 mmHg 70%
    09:00 +21°C° 0 mm 2 mps 757 mmHg 66%
    10:00 +24°C° 0 mm 2 mps 757 mmHg 62%
    11:00 +25°C° 0 mm 2 mps 757 mmHg 57%
    12:00 +26°C° 0 mm 2 mps 757 mmHg 57%
    13:00 +26°C° 0 mm 2 mps 757 mmHg 57%
    14:00 +26°C° 0 mm 2 mps 757 mmHg 56%
    15:00 +26°C° 0 mm 2 mps 757 mmHg 57%
    16:00 +26°C° 0 mm 2 mps 757 mmHg 59%
    17:00 +25°C° 0 mm 2 mps 756 mmHg 60%
    18:00 +23°C° 0 mm 2 mps 757 mmHg 66%
    19:00 +20°C° 0 mm 2 mps 757 mmHg 71%
    20:00 +18°C° 0 mm 2 mps 757 mmHg 77%
    21:00 +18°C° 0 mm 2 mps 757 mmHg 79%
    22:00 +17°C° 0 mm 2 mps 757 mmHg 82%
    23:00 +16°C° 0 mm 2 mps 757 mmHg 84%

    26 August, Monday

    Time Temperature Precipitation Wind Pressure Humidity
    00:00 +16°C° 0 mm 2 mps 758 mmHg 86%
    01:00 +15°C° 0 mm 2 mps 758 mmHg 88%
    02:00 +15°C° 0 mm 2 mps 758 mmHg 90%
    03:00 +14°C° 0 mm 2 mps 758 mmHg 91%
    04:00 +14°C° 0 mm 1 mps 758 mmHg 91%
    05:00 +14°C° 0 mm 1 mps 758 mmHg 91%
    06:00 +15°C° 0 mm 1 mps 758 mmHg 85%
    07:00 +17°C° 0 mm 2 mps 758 mmHg 78%
    08:00 +19°C° 0 mm 2 mps 758 mmHg 71%
    09:00 +20°C° 0 mm 2 mps 758 mmHg 66%
    10:00 +23°C° 0 mm 2 mps 758 mmHg 61%
    11:00 +25°C° 0 mm 2 mps 758 mmHg 55%
    12:00 +25°C° 0 mm 1 mps 758 mmHg 52%
    13:00 +26°C° 0 mm 1 mps 758 mmHg 50%
    14:00 +27°C° 0 mm 1 mps 757 mmHg 47%
    15:00 +27°C° 0 mm 1 mps 757 mmHg 49%
    16:00 +26°C° 0 mm 1 mps 756 mmHg 51%
    17:00 +26°C° 0 mm 1 mps 756 mmHg 53%
    18:00 +24°C° 0 mm 1 mps 756 mmHg 59%
    19:00 +21°C° 0 mm 2 mps 756 mmHg 65%
    20:00 +19°C° 0 mm 2 mps 756 mmHg 72%
    21:00 +18°C° 0 mm 2 mps 756 mmHg 74%
    22:00 +18°C° 0 mm 1 mps 756 mmHg 76%
    23:00 +18°C° 0 mm 1 mps 756 mmHg 78%

    27 August, Tuesday

    Time Temperature Precipitation Wind Pressure Humidity
    00:00 +16°C° 0 mm 1 mps 756 mmHg 80%
    01:00 +16°C° 0 mm 1 mps 756 mmHg 82%
    02:00 +14°C° 0 mm 0 mps 756 mmHg 83%
    03:00 +14°C° 0 mm 0 mps 756 mmHg 84%
    04:00 +14°C° 0 mm 0 mps 756 mmHg 84%
    05:00 +13°C° 0 mm 0 mps 756 mmHg 85%
    06:00 +15°C° 0 mm 0 mps 756 mmHg 79%
    07:00 +19°C° 0 mm 1 mps 756 mmHg 73%
    08:00 +21°C° 0 mm 1 mps 756 mmHg 67%
    09:00 +22°C° 0 mm 1 mps 756 mmHg 63%
    10:00 +24°C° 0 mm 1 mps 756 mmHg 59%
    11:00 +25°C° 0 mm 2 mps 756 mmHg 55%
    12:00 +26°C° 0 mm 2 mps 756 mmHg 53%
    13:00 +27°C° 0 mm 2 mps 756 mmHg 52%
    14:00 +27°C° 0 mm 2 mps 755 mmHg 51%
    15:00 +27°C° 0 mm 2 mps 755 mmHg 54%
    16:00 +27°C° 0 mm 2 mps 755 mmHg 56%
    17:00 +26°C° 0 mm 2 mps 755 mmHg 59%
    18:00 +24°C° 0 mm 2 mps 755 mmHg 66%
    19:00 +21°C° 0 mm 2 mps 755 mmHg 74%
    20:00 +20°C° 0 mm 2 mps 755 mmHg 81%
    21:00 +19°C° 0 mm 2 mps 755 mmHg 84%
    22:00 +18°C° 0 mm 2 mps 755 mmHg 87%
    23:00 +18°C° 0 mm 2 mps 756 mmHg 90%

    28 August, Wednesday

    Time Temperature Precipitation Wind Pressure Humidity
    00:00 +17°C° 0 mm 2 mps 756 mmHg 91%
    01:00 +17°C° 0 mm 2 mps 756 mmHg 92%
    02:00 +16°C° 0 mm 2 mps 755 mmHg 92%
    03:00 +16°C° 0 mm 2 mps 756 mmHg 93%
    04:00 +15°C° 0 mm 2 mps 756 mmHg 93%
    05:00 +15°C° 0 mm 2 mps 756 mmHg 93%
    06:00 +16°C° 0 mm 2 mps 756 mmHg 88%
    07:00 +18°C° 0 mm 2 mps 756 mmHg 83%
    08:00 +19°C° 0 mm 2 mps 756 mmHg 78%
    09:00 +20°C° 0 mm 3 mps 756 mmHg 71%
    10:00 +22°C° 0 mm 3 mps 756 mmHg 64%
    11:00 +24°C° 0 mm 3 mps 756 mmHg 58%
    12:00 +25°C° 0 mm 3 mps 756 mmHg 55%
    13:00 +25°C° 0 mm 3 mps 756 mmHg 52%
    14:00 +25°C° 0 mm 3 mps 756 mmHg 49%
    15:00 +25°C° 0 mm 3 mps 756 mmHg 51%
    16:00 +24°C° 0 mm 3 mps 756 mmHg 54%
    17:00 +24°C° 0 mm 3 mps 756 mmHg 56%
    18:00 +21°C° 0 mm 3 mps 756 mmHg 61%
    19:00 +19°C° 0 mm 3 mps 756 mmHg 66%
    20:00 +17°C° 0 mm 3 mps 756 mmHg 71%
    21:00 +16°C° 0 mm 3 mps 756 mmHg 72%
    22:00 +14°C° 0 mm 3 mps 757 mmHg 72%
    23:00 +13°C° 0 mm 3 mps 757 mmHg 72%
    Show more